Theta_e
308 312 316 319 320 320 320 320 321 321 320 318 318 319 319 318 316 316 316 315 314 313 311 310 309 309 309 309 307 307 307 307 307 307 307 308 308 308 308 309 309 309 309 309 309 310 309 310 310 310 310 310 310 310 310 310 309 309 308 308 308 307 307 307 307 307 306 306 306 305 305 304 304 304
306 307 309 314 318 319 319 319 320 319 317 316 317 318 317 316 314 314 314 314 313 312 311 309 309 308 308 308 308 308 309 309 309 308 309 309 309 310 309 309 309 309 309 309 309 308 308 308 308 308 308 308 308 308 308 309 309 309 309 309 309 308 308 307 307 307 306 307 306 306 306 306 305 304
309 309 308 309 314 318 318 317 317 316 314 314 315 316 316 315 314 313 313 312 312 311 310 309 308 308 308 309 309 310 311 311 311 310 310 311 311 310 310 310 310 309 309 309 309 309 308 307 307 307 306 306 305 305 305 305 305 306 306 307 307 308 308 308 308 307 307 306 306 306 306 306 306 306
310 310 310 310 311 314 315 314 314 313 313 314 314 315 317 316 315 314 313 312 310 310 309 309 308 308 308 309 309 311 311 311 311 311 311 311 310 310 310 310 310 309 309 309 310 310 309 308 306 306 306 305 304 304 304 303 303 303 302 302 302 303 304 305 306 307 307 306 306 306 305 305 305 306
310 309 310 311 312 312 313 313 314 314 314 314 314 314 316 316 316 316 315 313 310 310 309 309 308 308 309 309 309 310 312 311 311 311 311 311 310 310 311 311 311 310 310 310 310 310 311 309 307 306 305 304 304 303 303 303 302 302 302 301 300 300 300 301 302 303 304 305 305 305 305 305 304 305
310 310 310 310 312 313 313 313 314 314 314 314 315 314 315 315 315 315 315 314 313 311 310 309 309 309 309 309 310 311 311 312 311 311 311 311 311 311 311 311 311 311 311 311 311 311 310 309 307 306 305 304 304 304 304 303 302 302 301 301 300 300 299 299 300 300 301 301 302 303 303 303 303 303
315 314 313 312 311 312 313 313 313 313 313 313 314 314 314 314 314 314 314 315 315 314 311 310 311 311 311 311 311 311 311 312 311 311 311 311 311 311 311 312 312 311 311 311 312 311 309 308 308 307 306 305 305 304 304 304 304 302 301 301 300 300 300 299 299 299 300 300 300 300 301 301 301 302
319 318 317 316 314 311 311 312 312 313 313 313 314 314 314 314 315 316 316 315 316 315 314 313 313 313 313 313 312 312 312 312 311 311 311 311 311 310 310 311 312 312 312 311 311 311 309 308 309 308 307 307 306 306 305 305 305 303 301 301 301 300 300 299 299 299 299 299 299 299 299 300 300 300
320 319 319 319 317 315 313 312 313 314 314 313 314 315 315 315 315 316 317 317 316 315 315 314 313 313 313 312 312 312 312 312 312 312 311 311 310 310 311 312 312 312 311 311 311 311 309 308 309 308 308 307 307 307 306 306 305 303 302 302 301 301 300 299 299 299 298 298 298 298 299 299 299 299
320 320 319 319 319 318 317 317 316 317 316 315 315 316 316 316 316 316 317 317 317 316 316 315 314 314 314 313 312 312 313 313 313 312 312 312 311 311 312 312 312 312 311 311 311 311 309 309 309 308 308 308 308 307 307 306 304 302 302 302 302 301 300 300 299 299 299 298 298 298 298 298 298 299
319 319 319 319 319 319 319 319 318 319 318 316 316 316 315 315 316 316 317 317 317 317 317 317 316 316 315 314 314 314 314 314 314 313 313 312 312 312 312 312 312 312 312 312 311 310 309 309 309 308 308 308 308 308 307 305 303 302 301 302 302 301 301 301 300 300 300 299 298 298 298 298 298 298
316 317 318 318 319 319 319 319 319 319 318 317 316 317 316 315 315 316 316 317 317 317 317 316 316 316 316 315 315 315 315 315 314 314 313 313 313 313 313 313 312 312 312 312 311 310 309 309 309 308 308 308 308 307 305 303 302 301 302 302 302 301 301 301 301 301 301 300 300 299 298 298 298 298
317 317 318 318 318 318 318 319 319 319 318 317 316 316 316 316 316 316 316 316 316 316 316 315 315 315 315 315 315 315 315 315 315 314 314 314 314 313 313 313 313 313 312 311 311 310 309 309 309 309 309 308 307 305 302 301 301 302 302 302 301 300 300 301 301 301 301 300 300 299 298 298 298 298
317 317 317 317 317 317 318 318 318 318 318 318 317 316 315 315 315 315 315 315 315 315 315 315 314 314 315 315 315 315 315 315 314 314 314 314 314 314 313 313 313 312 311 311 310 310 309 309 309 308 307 305 304 302 301 301 302 302 302 301 301 300 300 300 301 301 300 300 300 299 298 298 298 298
317 317 317 317 316 316 317 317 318 318 318 317 315 314 312 310 309 308 308 310 311 313 315 315 314 314 315 315 314 314 314 314 314 314 314 314 313 313 313 312 312 311 310 310 309 309 309 308 307 306 304 303 302 301 302 302 302 302 302 301 301 300 300 300 300 300 300 300 299 299 298 298 298 298
316 316 315 315 314 313 314 315 315 315 313 312 310 308 306 305 304 304 304 304 306 309 313 314 315 315 315 314 314 314 314 313 313 313 313 313 312 312 312 311 311 310 310 309 308 308 307 306 304 303 302 302 301 302 303 303 302 302 301 301 301 300 299 299 300 300 300 299 299 298 298 298 298 297
316 316 315 313 313 313 312 311 310 310 308 308 307 306 305 304 303 304 304 304 304 306 309 312 313 314 314 314 314 313 313 313 313 312 312 312 312 311 311 310 310 309 308 308 307 306 305 303 302 302 301 301 301 301 302 302 301 301 301 300 300 299 299 300 300 299 299 299 299 298 297 297 297 297
315 315 315 314 313 313 311 309 309 309 308 308 306 304 303 302 303 303 304 304 304 304 306 308 311 313 314 314 314 313 313 312 312 312 311 311 311 310 310 309 308 307 307 305 304 303 302 302 301 301 301 301 301 301 301 301 300 300 300 299 299 299 300 300 299 299 299 298 298 298 297 297 297 297
316 315 315 314 314 314 312 309 309 309 308 307 304 303 302 302 303 303 304 304 304 304 304 306 309 311 313 314 314 313 313 312 311 310 310 310 309 309 308 307 306 305 304 303 301 301 301 300 300 300 300 300 300 300 300 300 300 299 299 299 299 299 299 299 298 298 298 298 298 298 297 297 297 296
316 315 314 314 314 314 313 310 309 309 309 306 302 302 302 303 304 304 304 304 304 304 304 305 306 308 310 311 311 311 311 310 309 309 308 307 306 305 304 303 302 301 300 299 299 299 299 299 299 299 299 299 299 299 299 299 299 298 298 298 298 298 298 298 298 298 298 298 297 297 297 297 296 297
315 314 314 314 314 314 312 310 308 307 306 303 301 302 302 303 305 307 306 305 305 304 304 305 305 306 307 307 307 306 306 305 305 304 304 303 302 301 300 300 299 299 298 298 298 298 298 298 298 298 298 298 298 298 298 298 298 298 298 298 298 298 298 297 297 297 297 297 297 297 297 297 296 296
310 310 310 309 310 310 307 304 303 302 302 301 300 301 304 305 307 308 308 307 306 305 305 305 305 305 304 304 303 302 301 301 301 300 300 300 299 299 299 299 298 298 298 298 298 298 298 298 297 297 297 297 297 297 297 297 297 297 297 297 297 297 297 297 297 297 296 296 296 296 296 296 296 296
307 306 304 303 303 304 302 301 301 301 300 300 300 301 305 309 309 308 308 307 307 307 306 306 306 305 303 302 301 300 300 299 299 299 299 299 299 299 299 299 298 298 298 298 298 297 297 297 297 297 297 297 297 297 296 296 297 297 296 296 296 296 296 296 296 296 296 296 296 296 296 296 295 295
308 306 304 304 304 304 303 303 302 301 300 300 300 300 303 308 309 308 308 307 307 307 306 305 305 304 302 300 299 299 299 299 299 299 299 299 299 299 299 299 299 298 298 298 297 297 297 297 297 297 296 296 296 296 296 295 295 295 295 295 295 295 295 295 295 295 295 295 295 295 295 295 295 295
308 308 307 307 307 306 305 305 302 300 299 299 299 299 301 305 307 308 307 307 306 305 304 303 302 301 300 299 299 299 299 299 299 299 299 299 299 299 299 299 298 298 298 297 297 297 297 296 296 296 296 295 295 295 295 294 294 294 294 294 294 294 294 294 294 294 294 294 294 294 294 294 294 294
309 308 308 308 307 307 307 304 301 299 299 299 299 298 299 301 304 304 304 304 303 302 301 301 300 299 299 298 298 298 298 299 299 299 299 299 298 298 298 298 297 297 297 296 296 296 296 295 295 295 295 294 294 293 293 293 294 294 293 293 293 293 293 293 293 293 293 293 293 294 294 294 294 293
309 308 308 308 307 307 306 303 300 299 299 298 298 298 299 299 301 302 302 302 301 300 300 299 299 299 298 298 298 298 299 299 299 299 299 298 298 297 297 297 296 296 296 295 295 295 295 294 294 294 294 293 293 293 292 293 293 293 293 293 292 292 292 292 292 293 293 293 293 293 293 293 293 293
308 308 307 307 307 306 304 301 299 299 298 298 298 299 299 300 301 301 301 301 300 300 299 299 299 298 298 298 298 299 299 299 299 299 298 298 297 297 296 296 296 295 295 295 295 294 294 294 293 293 293 293 293 293 293 293 293 293 293 293 293 292 292 292 292 292 292 292 293 293 293 293 293 293
307 307 307 307 306 304 301 299 298 298 298 298 299 299 299 300 300 300 300 300 300 299 298 298 298 298 298 298 298 298 298 298 298 297 297 297 296 296 296 296 295 295 295 294 294 294 293 293 293 293 293 293 293 293 293 293 293 293 293 293 293 293 293 292 292 292 292 292 293 293 293 293 293 293
306 307 307 306 304 301 299 299 298 298 298 298 298 299 300 300 300 300 300 300 299 298 297 296 297 297 297 298 297 297 297 297 296 296 295 295 295 295 295 295 295 295 294 293 293 293 292 292 292 292 292 293 293 293 293 293 293 293 293 293 293 293 293 292 292 292 293 293 293 293 293 293 293 293
305 306 305 303 301 299 298 298 298 298 298 298 299 299 300 300 300 299 299 298 298 297 297 297 297 297 297 297 297 297 296 296 296 295 295 294 294 294 294 294 294 294 293 292 292 291 291 291 291 292 292 292 292 293 293 293 293 293 293 293 293 293 293 293 293 293 293 293 292 292 292 293 292 292
303 303 302 300 299 298 299 299 299 300 299 300 300 299 299 299 299 299 298 298 297 297 297 297 297 297 297 297 296 296 296 295 295 294 293 293 293 293 292 292 292 292 292 291 291 290 291 291 291 292 292 292 292 293 293 293 293 293 293 293 293 293 293 293 293 293 293 293 292 293 292 292 292 292
301 300 299 299 299 299 299 300 301 301 301 301 300 299 299 299 299 298 297 297 297 297 296 296 296 296 296 295 295 294 294 293 293 292 292 292 291 291 291 291 290 290 290 290 290 290 290 291 291 292 292 292 292 292 292 293 293 293 293 293 293 293 293 293 293 293 293 293 292 292 292 292 292 292
300 299 299 299 299 299 300 301 302 302 301 300 299 299 299 299 298 297 296 296 296 296 295 295 295 295 295 294 294 293 293 292 292 291 291 291 290 290 290 290 290 290 290 290 290 290 290 291 291 292 292 293 293 292 292 292 292 293 292 293 293 293 293 293 293 292 292 292 292 292 292 292 292 292
299 299 300 300 300 300 301 302 302 302 300 299 299 298 298 298 298 296 295 295 295 295 295 295 295 294 294 294 293 293 292 292 291 291 291 291 290 291 291 290 290 290 290 290 290 290 291 291 291 292 293 293 293 293 293 292 292 292 292 292 292 292 292 292 292 292 292 292 292 292 292 292 292 292
299 299 300 300 301 301 302 302 302 300 299 299 298 298 298 297 297 296 295 295 295 295 295 295 295 294 294 293 293 292 292 292 291 291 291 291 291 291 291 291 291 290 290 290 290 291 291 291 291 292 292 292 292 292 293 292 292 292 292 292 292 292 291 291 291 291 292 292 292 292 292 292 292 292
300 300 300 300 300 301 301 301 300 299 299 298 298 298 297 296 296 295 295 295 295 295 295 295 294 293 293 293 292 292 292 292 291 291 291 291 291 291 291 291 290 290 289 290 291 291 291 291 291 291 291 291 291 291 292 292 292 292 292 292 292 292 292 291 291 291 291 292 292 292 292 291 292 292
300 301 302 301 301 301 301 300 300 299 299 298 298 298 297 296 295 295 295 295 295 295 294 293 293 292 292 292 292 292 292 292 291 291 291 291 290 290 290 290 289 289 290 291 291 291 291 291 292 291 291 291 291 291 292 292 292 292 292 292 292 292 291 291 291 291 292 292 291 291 291 291 292 292
301 302 302 301 301 301 301 301 300 299 299 298 298 297 297 295 295 295 295 295 294 293 292 291 291 292 292 292 291 291 291 291 291 291 291 290 290 289 289 289 289 290 291 291 291 291 292 292 292 292 291 291 291 291 292 292 293 293 293 292 292 291 291 291 291 292 292 291 291 292 292 292 292 292
302 302 302 301 301 301 301 300 299 299 299 298 298 297 296 294 294 294 294 293 292 292 291 291 291 290 290 290 290 290 291 291 291 291 290 289 289 289 289 289 290 290 291 291 291 292 292 292 292 292 292 292 292 292 292 292 293 293 293 293 292 292 292 292 292 292 291 291 291 292 292 293 293 293
301 302 301 301 301 301 300 300 299 299 298 298 297 296 295 294 293 293 292 292 291 292 292 291 290 290 289 289 289 289 290 290 290 290 290 289 288 289 290 290 290 291 291 291 291 292 292 292 292 292 292 292 292 292 293 293 294 294 293 293 293 292 292 292 292 291 291 291 292 292 293 293 293 293
300 301 300 300 300 300 299 299 298 298 298 297 296 295 294 293 293 292 291 291 292 292 292 291 290 290 289 288 288 289 290 290 290 290 289 289 289 289 290 291 291 291 291 291 292 292 292 292 292 292 292 292 293 293 293 294 294 294 293 293 293 293 293 292 291 291 291 291 292 292 293 293 293 292
300 300 300 299 300 299 299 298 298 298 297 296 295 294 294 293 292 291 290 291 291 291 291 291 291 290 289 289 289 289 290 290 289 289 289 289 289 290 291 291 291 291 291 291 292 292 292 292 293 293 293 293 293 294 294 294 294 293 293 293 293 293 292 292 291 291 291 291 291 292 292 292 292 292
300 299 299 299 299 298 298 298 297 297 296 295 294 294 293 292 291 291 290 290 291 291 291 291 290 289 289 289 289 289 290 289 288 288 289 289 289 290 291 291 291 291 292 292 292 292 292 292 293 293 293 293 294 294 294 293 293 293 293 293 293 293 292 291 291 291 291 291 291 291 292 291 291 291
299 298 298 297 297 298 298 297 296 295 295 295 294 293 292 291 291 290 290 290 290 291 291 290 290 289 289 289 289 289 290 289 289 289 289 290 290 290 290 290 291 291 292 292 292 292 292 293 293 293 293 293 294 294 293 293 293 293 293 293 293 292 292 291 291 291 291 291 291 291 291 291 291 291
Wind_Speed
16 16 16 18 18 16 16 17 16 15 11 9 10 12 16 21 23 21 17 12 8 4 1 3 4 4 4 6 7 8 8 6 4 5 5 4 4 4 4 3 3 3 4 5 6 7 7 7 7 8 8 8 8 8 8 8 8 8 8 9 9 9 9 10 10 10 11 11 11 12 12 12 12 13
17 17 16 16 17 15 14 14 14 12 9 8 9 10 15 21 18 17 18 14 9 7 3 3 3 4 5 6 6 7 7 6 4 4 4 3 3 3 3 3 2 3 5 6 8 10 10 9 9 9 9 9 10 10 10 10 10 10 10 10 10 11 11 11 12 12 12 13 13 13 13 14 13 13
15 16 17 17 16 15 14 13 11 9 6 7 7 10 14 17 15 13 15 15 12 8 5 3 2 3 5 6 7 8 10 8 4 3 5 5 4 4 5 5 4 4 5 7 9 12 14 13 11 11 11 11 11 11 11 12 12 12 12 12 12 13 13 13 14 14 15 15 15 15 15 15 15 15
12 11 13 17 18 17 15 14 12 9 7 6 6 8 11 13 13 12 11 13 14 9 4 2 0 1 2 4 5 8 12 10 5 4 7 9 7 7 8 7 7 5 5 5 8 13 17 17 13 10 11 12 12 13 14 14 14 14 14 14 14 14 15 15 16 16 17 17 17 17 17 17 17 17
10 10 11 14 16 17 16 14 12 10 8 7 7 8 9 11 10 8 7 10 13 10 7 6 3 2 2 1 0 4 9 10 8 7 7 8 9 10 8 8 8 7 6 7 11 16 20 21 15 10 9 11 13 14 16 16 17 16 16 16 15 15 15 16 16 17 17 18 18 19 19 18 19 19
6 7 9 11 12 13 14 12 10 10 10 9 9 9 9 11 10 7 6 8 9 9 9 9 7 5 6 6 4 1 6 8 8 7 5 5 8 10 8 7 8 9 10 11 15 20 23 22 17 11 9 10 13 16 19 20 20 18 17 15 15 15 16 16 16 16 17 18 18 19 20 20 20 20
5 5 7 9 10 11 11 11 11 13 13 12 11 10 9 10 10 7 6 7 7 8 8 9 8 6 7 8 5 0 3 5 6 5 3 4 6 7 6 6 8 10 11 13 17 22 22 21 19 15 13 13 16 20 23 24 25 22 19 16 15 15 16 16 16 16 16 17 18 19 20 20 21 21
5 5 6 7 9 11 11 11 11 12 12 11 10 10 10 11 10 8 7 7 7 7 8 9 8 6 5 7 5 2 2 1 2 4 4 4 5 5 5 7 9 10 12 15 19 22 22 19 19 19 19 20 22 26 28 29 30 27 22 19 17 17 16 16 16 16 17 17 18 19 19 20 21 21
6 5 6 6 8 9 10 12 12 11 10 9 9 9 11 12 10 9 8 7 7 8 8 8 9 7 6 6 5 4 3 3 2 3 3 4 7 7 7 9 10 11 13 16 19 22 21 19 19 21 23 25 26 29 32 33 33 28 23 20 20 19 19 18 18 18 19 19 19 19 19 20 20 21
8 7 7 7 7 7 8 10 11 9 9 9 9 9 10 10 9 8 8 7 7 7 6 7 9 8 7 9 8 6 6 6 6 4 5 8 10 10 10 11 11 12 14 17 20 22 21 19 20 22 24 26 27 30 34 36 34 28 22 19 20 21 21 21 21 21 21 21 22 22 21 21 21 21
10 9 8 9 9 7 7 8 8 7 8 9 9 8 8 9 9 9 9 8 8 7 6 6 8 8 8 9 9 8 8 10 10 8 6 8 11 11 12 12 13 13 15 18 21 22 21 20 21 23 25 26 29 33 37 36 31 24 20 19 20 21 23 23 24 24 24 25 25 25 25 24 23 22
10 9 9 9 9 8 8 8 8 7 7 7 8 8 8 8 9 9 10 9 7 7 7 6 7 8 8 10 10 9 10 11 12 12 11 12 13 15 16 16 18 19 20 21 22 21 20 20 21 23 26 29 32 35 35 32 26 20 18 18 20 22 24 24 24 25 27 28 29 29 29 27 26 25
10 10 10 9 9 9 9 8 8 8 7 6 6 7 8 8 8 9 10 9 8 9 9 8 7 7 7 8 10 11 12 13 14 15 16 17 18 19 20 20 22 23 24 24 23 21 20 22 25 27 29 31 33 32 29 25 21 18 17 19 22 23 23 23 24 26 27 29 30 31 31 29 28 26
10 10 10 9 9 9 9 9 8 8 8 7 7 7 7 8 8 9 9 10 10 10 10 10 10 9 8 7 9 12 13 14 15 16 17 18 19 21 22 22 23 24 25 26 26 25 25 27 29 29 30 30 28 26 23 21 19 18 20 22 23 23 22 23 24 25 27 29 30 30 29 29 28 27
10 11 10 9 9 8 8 8 9 9 8 8 7 6 6 5 6 7 7 8 8 9 10 11 11 12 11 9 9 12 14 15 15 16 18 18 19 20 22 23 24 25 25 27 29 30 29 29 29 28 28 27 23 21 19 18 18 19 21 22 23 24 24 24 24 25 26 27 27 27 27 27 28 28
10 10 9 9 9 8 8 8 8 8 8 7 6 4 3 3 4 5 5 6 7 8 9 10 11 13 13 12 11 12 14 15 15 16 17 18 19 20 22 24 27 27 27 29 31 31 29 28 27 26 25 23 19 15 13 15 17 19 20 23 25 26 24 22 22 22 22 23 23 23 25 27 28 29
11 10 9 9 9 8 8 8 8 8 7 6 4 3 3 4 5 6 6 7 8 8 9 10 11 13 14 15 14 14 15 16 16 17 18 19 20 22 24 26 28 28 27 28 30 30 29 27 25 23 21 19 16 13 12 16 19 21 23 25 25 23 19 17 18 18 18 18 18 20 22 24 25 26
13 12 10 9 9 8 7 7 7 7 6 5 4 4 4 5 6 6 7 8 9 10 10 11 12 14 15 17 17 18 18 19 19 20 22 23 24 26 27 28 28 28 27 28 30 30 28 25 23 21 20 20 19 18 19 21 22 24 24 22 19 16 14 13 14 16 17 17 16 17 19 20 21 22
12 12 11 11 9 7 6 7 6 6 7 7 7 6 5 5 5 6 7 8 8 9 9 10 11 12 14 16 17 18 20 21 22 23 24 25 26 27 28 28 28 27 26 26 27 27 24 22 22 21 22 23 23 22 22 23 23 24 22 18 14 14 15 15 16 17 19 19 19 18 17 16 16 17
12 12 11 11 10 8 7 7 7 8 8 8 8 7 6 7 6 6 7 8 8 8 8 8 8 9 11 12 14 16 18 20 22 23 23 24 25 26 26 25 25 25 24 22 23 22 21 21 22 22 23 25 24 23 23 23 22 21 18 16 16 16 17 17 19 20 21 22 23 21 19 18 17 18
15 14 13 13 12 10 9 8 9 9 8 8 9 9 9 8 8 9 10 10 10 9 9 9 10 10 11 12 14 16 18 19 20 21 22 22 22 22 22 22 23 22 20 19 19 19 19 20 22 24 25 26 26 26 25 24 23 23 21 21 22 22 22 21 22 23 23 23 23 23 21 20 20 20
15 14 14 14 13 11 9 9 8 8 8 8 9 10 10 10 10 11 13 13 13 11 11 11 12 13 14 15 16 17 17 17 17 18 18 18 19 19 19 19 21 20 18 18 19 19 20 23 25 28 30 30 29 29 29 28 27 26 26 27 28 28 26 25 24 24 24 23 23 22 20 20 20 20
12 12 12 12 11 10 8 6 5 5 6 7 8 10 12 12 12 13 15 16 15 14 13 14 15 16 17 18 18 16 14 13 14 14 14 15 16 17 17 18 19 19 18 20 22 22 24 26 28 30 32 33 33 33 33 33 32 32 32 32 31 30 28 27 26 25 24 23 22 21 20 20 21 21
11 11 11 10 9 9 7 5 4 5 7 8 8 9 12 13 12 13 15 16 17 16 16 16 17 18 17 16 15 14 13 14 15 14 14 14 15 16 17 18 18 17 18 22 24 25 26 29 30 31 32 32 33 35 35 34 33 33 31 28 25 23 23 23 24 24 23 22 21 21 21 21 21 22
12 11 11 10 9 9 8 6 6 6 7 8 9 10 12 13 13 14 15 16 18 18 18 18 18 17 15 14 14 15 15 17 17 16 15 15 16 16 17 18 18 19 20 23 26 27 29 30 31 32 32 31 31 32 32 31 29 27 24 21 19 18 17 17 17 17 19 19 18 17 18 19 19 20
13 12 11 10 10 10 9 7 7 6 7 9 10 11 12 13 14 15 15 15 16 17 17 16 15 14 14 15 15 16 16 16 15 14 14 14 14 15 16 18 20 22 23 25 27 28 28 29 29 29 28 28 27 27 28 28 26 24 22 21 20 19 18 17 15 13 13 13 14 14 15 16 18 18
15 14 12 11 11 10 8 8 7 7 7 9 10 11 12 13 14 14 14 14 14 14 14 14 13 13 15 15 15 16 17 17 17 16 16 16 17 18 19 21 22 23 24 25 26 26 26 25 24 23 23 23 24 25 26 26 25 23 22 21 20 19 18 17 15 13 13 13 13 14 14 15 16 17
15 14 13 12 11 9 9 8 8 8 9 9 10 11 12 12 12 12 13 13 13 12 12 12 12 13 14 15 16 17 19 20 21 22 22 22 22 23 23 24 25 26 26 25 25 25 24 22 21 20 20 20 22 23 23 24 24 23 22 21 19 18 17 15 15 15 14 14 14 14 15 17 17 18
14 13 13 13 11 10 10 9 8 9 10 10 10 11 11 11 12 13 12 12 11 10 10 10 11 13 14 16 18 20 21 23 24 25 27 27 27 27 27 27 26 26 26 25 24 22 20 18 17 17 16 17 18 20 22 24 24 22 22 22 21 18 16 15 15 15 15 15 15 15 16 17 18 19
14 13 14 13 11 11 11 9 9 9 10 11 11 11 11 11 12 11 10 9 9 9 9 10 12 14 16 17 19 21 22 23 25 27 29 29 28 27 27 27 26 25 24 22 19 17 16 14 13 14 15 16 18 20 21 22 24 23 22 22 23 21 17 16 16 17 17 18 18 17 17 17 18 19
17 15 14 13 12 12 12 11 10 10 10 11 11 11 10 10 9 8 8 8 8 9 9 10 12 14 15 17 19 21 23 25 27 29 29 27 24 24 25 24 23 22 20 16 13 12 12 12 12 14 16 17 18 19 20 21 23 24 23 23 24 22 19 18 18 18 18 20 20 20 20 20 19 19
17 16 15 15 15 14 13 12 11 11 11 11 10 8 7 7 7 6 7 8 9 9 9 11 12 14 16 19 21 24 26 27 27 26 24 21 18 17 18 18 18 18 17 15 14 12 11 10 11 12 13 15 17 18 20 21 23 24 24 23 21 19 17 18 20 20 19 21 23 24 24 24 23 21
17 17 16 16 16 15 13 12 11 12 12 11 9 7 5 6 7 7 8 10 11 11 11 12 13 14 16 18 20 22 23 23 23 22 20 17 15 14 15 16 17 18 19 19 18 16 12 10 10 11 12 14 16 17 19 21 21 20 20 19 18 17 18 19 20 21 21 23 25 27 27 27 25 22
19 18 17 16 16 14 13 12 12 12 12 11 9 7 5 6 7 8 9 11 11 12 12 12 14 15 16 17 18 20 21 21 21 20 18 15 14 14 16 18 19 18 19 20 20 18 15 14 13 13 13 14 15 14 14 15 16 16 16 16 18 20 21 21 22 23 23 23 25 26 26 25 22 18
21 19 17 18 18 16 15 14 13 13 12 11 9 8 7 8 9 8 8 9 10 10 11 12 14 16 16 17 19 20 21 21 20 18 16 15 15 16 18 19 19 19 20 21 18 16 16 16 16 16 15 15 15 12 9 10 14 17 17 18 19 21 22 22 22 21 20 20 20 21 23 23 19 15
25 21 18 18 18 17 16 15 14 13 12 11 10 10 10 10 9 8 8 9 9 9 10 12 14 16 17 18 19 19 19 20 19 16 15 15 16 16 16 17 18 20 20 17 15 14 15 15 15 15 16 17 18 18 14 13 14 16 17 18 18 19 19 19 18 16 17 18 18 19 21 21 19 16
23 19 17 16 16 17 16 15 15 13 12 12 13 13 12 10 8 8 9 10 9 10 11 12 13 14 15 15 16 17 18 19 19 17 16 16 17 17 17 18 20 20 17 14 13 14 15 14 13 12 14 16 18 20 19 14 11 10 12 14 15 16 16 17 17 16 17 18 19 18 19 20 19 17
22 20 18 16 16 16 16 16 16 15 15 16 16 15 12 11 10 10 10 11 11 11 11 11 12 11 11 12 14 16 17 18 18 18 18 18 19 19 20 20 19 16 13 13 14 14 13 13 11 11 12 14 16 18 18 14 10 8 9 13 15 16 16 16 17 18 19 20 20 19 18 18 18 15
22 22 19 16 16 16 17 18 18 18 18 19 17 14 12 12 13 13 12 12 11 10 9 9 9 8 9 11 14 16 17 17 19 19 19 19 19 19 17 15 12 11 13 15 16 14 12 12 11 10 10 11 12 12 14 13 11 10 11 12 14 16 16 17 19 20 21 21 21 19 17 14 12 10
18 18 17 16 16 16 18 21 22 20 19 18 15 12 11 12 13 13 11 10 9 8 7 7 7 7 9 12 15 16 17 18 19 19 19 19 17 13 10 9 9 12 15 17 17 15 13 11 10 9 8 8 8 9 11 14 14 13 12 11 13 16 18 20 20 21 22 22 21 19 15 11 7 6
16 17 17 18 19 19 21 23 22 20 18 16 13 11 12 12 12 10 8 7 7 7 6 6 6 8 10 13 14 15 17 18 19 19 18 15 11 8 8 10 11 13 15 17 17 15 13 11 10 8 7 7 8 10 12 15 16 13 11 10 12 16 18 19 20 21 21 20 18 16 13 10 7 6
18 18 18 19 21 22 21 21 19 17 16 14 12 11 12 12 10 7 5 5 7 7 7 7 8 10 12 13 14 16 17 17 16 13 11 10 8 8 9 11 12 13 15 16 16 15 13 12 9 6 5 6 9 11 13 15 15 13 10 10 12 15 17 18 19 19 17 17 16 16 14 12 10 9
19 18 18 19 22 22 21 18 16 15 14 12 12 12 12 11 9 7 7 8 9 9 9 10 11 12 12 13 15 16 16 15 11 8 7 7 7 8 10 11 12 13 15 15 15 14 13 12 9 6 5 7 9 11 12 13 13 11 10 11 12 14 16 17 16 14 13 14 14 14 13 12 11 10
18 17 17 19 22 22 19 16 14 13 13 13 12 12 11 10 10 10 10 10 10 11 11 11 11 12 12 13 14 15 15 14 11 9 7 6 7 8 10 10 11 12 14 15 15 15 13 12 9 6 5 7 9 10 12 13 12 10 11 11 12 13 15 15 12 11 11 11 10 10 10 9 9 9
15 17 19 20 19 18 17 15 15 15 15 14 12 11 11 11 10 11 12 12 12 12 11 11 11 11 12 12 13 14 14 12 10 9 9 7 7 8 9 9 10 12 13 14 15 16 15 13 8 4 4 7 9 9 10 11 11 11 11 11 11 13 14 12 9 9 9 9 9 11 12 11 10 9
Wind_Direction
118 130 132 131 129 128 134 138 141 142 134 130 144 160 172 164 151 148 148 145 148 158 40 44 85 96 101 111 109 97 85 75 88 98 92 82 76 72 65 55 48 44 36 29 25 18 10 5 359 351 347 343 340 337 334 331 328 325 323 320 318 316 315 314 311 309 307 306 303 301 298 296 294 291
106 112 119 132 136 132 132 135 137 138 122 103 107 130 168 174 161 149 150 151 162 171 141 66 69 89 81 75 83 76 54 38 49 68 64 53 52 53 43 35 37 44 54 53 43 32 20 11 6 0 354 349 344 338 332 328 322 317 314 310 308 307 307 306 305 304 302 300 299 297 296 296 294 293
102 101 105 120 134 138 136 133 132 133 111 91 93 107 141 164 169 161 153 150 159 174 165 124 69 60 60 51 50 40 23 22 43 53 45 43 48 53 45 39 41 48 62 61 43 28 17 8 3 2 1 357 352 347 339 332 325 319 313 308 304 301 299 297 297 297 297 297 296 294 292 292 291 290
111 106 105 114 124 130 132 128 124 127 113 95 97 106 121 143 165 175 165 150 150 158 183 184 168 358 36 41 33 19 15 26 54 57 47 44 37 33 30 32 40 43 37 24 8 3 1 357 354 356 0 0 357 352 347 340 332 326 320 315 309 304 300 296 292 291 291 292 292 292 291 289 288 287
122 113 112 119 124 128 131 129 123 124 124 111 107 119 126 131 146 168 166 156 157 165 186 187 181 226 237 218 309 5 11 26 51 59 51 39 25 18 15 23 31 25 11 356 346 344 344 343 342 346 352 356 359 357 353 348 340 332 326 322 318 314 307 301 296 293 291 290 289 289 288 287 286 284
123 113 121 132 136 136 138 138 129 123 131 133 123 122 126 124 127 133 130 136 150 166 179 177 171 193 220 228 229 334 9 17 33 43 41 27 19 13 5 10 12 4 359 354 346 340 337 336 338 339 338 343 351 354 353 351 346 339 332 327 325 322 316 310 307 303 298 294 290 288 287 285 284 282
136 132 136 143 149 150 149 148 137 127 134 141 134 127 125 125 126 126 126 126 131 148 166 173 175 184 216 238 246 341 13 3 5 2 357 357 360 356 347 347 348 345 346 345 342 339 336 337 338 337 335 333 337 342 344 346 345 341 334 329 326 326 322 319 317 313 306 300 295 292 289 287 285 282
176 174 158 153 160 164 167 167 156 141 142 146 143 141 144 144 138 130 133 136 137 151 165 175 186 187 205 235 239 209 229 273 312 309 312 310 309 307 304 315 326 331 335 338 339 337 334 333 333 330 330 329 330 333 336 338 339 338 333 327 326 327 326 323 320 317 312 306 301 298 294 291 288 285
203 201 186 176 171 170 173 175 170 160 157 155 152 156 160 162 159 149 145 142 145 160 165 171 190 195 194 211 215 212 232 233 232 262 271 260 266 273 278 293 308 316 325 332 333 330 326 324 324 322 322 323 325 328 329 331 333 333 329 325 324 325 326 323 320 317 315 311 307 303 299 295 291 288
214 216 211 199 189 185 182 181 177 171 174 174 167 164 164 170 178 173 166 161 157 166 170 172 187 194 190 194 204 217 236 250 255 246 225 232 243 253 262 275 291 306 318 322 321 319 316 313 312 312 314 317 319 321 322 324 327 327 324 320 319 322 324 323 321 319 316 314 311 309 305 301 296 291
229 228 222 210 202 201 197 191 185 177 178 183 186 188 179 175 183 185 179 179 181 186 195 200 205 210 211 209 216 228 237 248 260 264 260 250 245 249 258 271 285 298 307 309 309 310 308 303 303 305 307 310 311 313 316 319 321 320 317 316 317 320 322 323 321 320 319 316 315 313 310 307 303 297
240 231 221 213 205 200 197 197 197 190 182 183 191 203 200 187 188 189 183 186 201 212 218 229 230 230 235 236 236 240 248 257 261 261 260 258 256 259 265 273 281 286 290 294 298 301 299 296 297 298 299 302 305 308 313 317 317 314 312 314 316 317 319 320 319 318 318 318 317 316 314 311 308 304
238 223 213 210 205 199 197 203 208 205 205 206 196 194 199 204 206 207 207 214 232 242 242 244 240 231 238 250 251 252 258 261 262 262 261 262 264 266 268 273 279 284 288 291 294 295 292 291 293 295 298 302 307 311 317 320 317 312 309 309 311 313 314 315 315 314 315 317 318 319 319 317 314 310
216 202 201 206 207 205 206 209 212 214 221 229 221 208 208 212 215 219 225 231 238 244 242 238 234 229 230 243 252 258 261 260 262 266 266 266 269 272 274 278 281 287 292 294 294 295 296 297 300 302 306 310 315 320 325 326 319 310 306 307 309 312 313 311 310 311 313 315 318 320 322 321 320 317
188 186 191 195 194 197 201 203 207 213 222 229 228 224 221 223 227 229 232 232 233 238 238 234 232 234 238 238 239 249 257 260 263 266 268 271 276 280 283 285 287 291 294 295 295 297 300 304 307 310 314 317 323 331 332 323 312 307 306 307 309 312 312 309 307 310 313 317 320 322 323 323 323 323
164 170 175 172 170 172 172 179 191 200 206 208 208 213 230 257 271 273 271 263 255 250 243 238 235 237 241 242 242 247 255 259 263 266 269 275 280 283 286 288 290 293 296 298 299 301 305 308 311 314 317 320 324 329 323 307 300 301 302 304 307 310 310 307 309 313 317 322 325 324 322 323 325 325
149 154 155 158 171 177 170 172 184 191 193 193 194 215 266 286 290 289 286 279 273 266 258 251 246 243 245 248 252 256 260 264 269 271 275 279 282 284 286 288 292 296 299 302 303 306 309 310 310 311 311 309 309 309 300 294 295 299 301 305 308 310 309 309 314 316 316 320 323 321 322 325 326 325
159 159 157 167 184 188 183 184 191 197 205 210 223 250 271 279 279 277 276 275 273 271 267 261 257 254 254 256 259 262 266 271 275 277 281 283 284 285 288 292 298 302 305 307 306 307 309 309 305 303 299 295 293 293 291 290 294 297 301 305 308 306 304 306 309 308 306 307 309 311 317 323 325 325
177 174 174 184 194 192 187 194 205 218 231 238 244 248 253 265 273 274 276 281 284 284 280 274 267 263 263 265 268 270 273 277 280 282 285 287 289 291 295 298 302 304 306 307 303 301 301 300 297 295 292 289 288 290 290 290 293 296 298 299 299 297 295 295 297 299 300 299 299 300 305 313 317 317
189 188 187 193 202 203 202 216 232 237 245 256 261 257 257 266 277 285 288 292 297 298 300 300 294 285 281 281 280 280 281 283 286 289 291 293 295 297 300 302 303 305 308 306 300 296 295 293 292 290 289 290 291 292 293 294 294 293 289 287 293 296 294 292 294 295 296 296 296 296 297 300 301 300
198 198 198 202 209 213 218 228 231 229 235 251 260 264 266 270 278 285 287 288 290 295 306 313 311 307 301 297 294 293 294 294 296 298 299 300 301 304 306 307 307 311 314 309 304 302 298 295 295 296 296 298 299 299 298 297 294 290 284 282 286 290 291 291 291 292 294 295 294 294 294 296 297 298
206 207 207 211 215 219 222 225 228 233 240 245 252 256 255 256 264 272 276 278 281 287 297 300 301 302 300 300 300 301 302 303 303 304 306 306 306 307 308 308 307 310 311 306 304 302 298 297 299 300 301 303 303 302 301 300 297 294 291 290 288 286 286 287 288 290 293 293 291 290 292 294 296 297
213 212 211 212 215 222 226 228 245 266 269 266 261 250 242 242 249 260 271 278 280 284 289 290 292 294 294 296 298 297 298 298 298 302 306 304 301 299 298 298 300 302 301 297 296 296 295 297 299 301 304 306 305 303 303 301 298 296 296 297 293 286 281 280 283 286 289 289 289 289 291 293 295 295
213 204 202 205 212 221 224 233 272 292 289 283 272 254 245 245 248 254 263 271 276 280 284 286 289 293 295 295 292 288 287 288 289 289 287 283 283 286 288 289 291 293 292 291 293 295 295 297 298 300 302 304 304 304 303 302 300 300 302 304 302 294 287 284 283 283 284 287 289 291 293 294 296 298
214 210 209 212 217 220 223 240 269 282 282 279 272 261 253 252 255 259 261 266 273 278 282 284 285 290 293 291 288 287 289 289 289 285 278 274 277 280 283 285 286 287 288 289 291 294 295 298 300 301 302 303 304 306 306 306 308 312 317 321 322 320 316 310 301 292 289 290 292 294 297 300 301 302
210 214 217 217 216 215 223 243 260 264 269 269 264 259 255 253 257 262 265 269 272 274 277 281 282 282 282 281 282 285 286 284 284 282 276 274 277 279 281 285 288 290 291 292 294 297 300 301 303 304 305 306 308 311 313 314 317 324 330 333 335 336 336 332 324 315 309 306 304 304 307 310 311 311
204 209 211 209 211 218 232 249 261 267 268 263 259 257 255 255 258 262 267 270 272 273 275 277 277 275 274 276 278 278 275 274 276 278 279 280 280 280 281 285 288 291 293 294 297 299 301 302 303 304 307 309 311 314 317 319 323 328 332 336 340 341 341 340 336 332 327 321 315 312 311 314 316 317
206 207 205 204 211 228 243 254 267 276 275 268 262 260 258 259 263 266 269 273 276 277 277 275 274 275 275 277 278 274 271 272 274 279 282 283 282 282 283 284 285 287 288 291 293 295 297 300 302 302 304 307 309 312 315 318 321 326 330 335 340 342 343 345 343 337 333 327 322 317 316 317 319 319
210 203 199 201 212 225 232 242 259 272 276 275 269 266 265 266 271 275 278 282 280 276 276 273 269 268 270 271 272 273 275 278 281 286 287 284 280 278 278 278 279 281 284 286 288 290 293 298 303 304 302 302 304 308 311 313 316 320 324 328 332 338 343 345 342 338 334 329 324 320 317 317 316 314
210 200 199 205 215 220 222 231 246 257 268 273 273 274 276 276 277 279 278 275 270 269 270 264 258 259 263 268 273 278 282 285 290 295 296 291 284 280 280 281 281 283 286 289 290 292 296 301 308 308 305 303 303 305 308 311 312 315 319 323 324 329 335 336 333 332 331 327 325 322 320 317 313 310
212 206 207 211 216 221 223 230 240 249 258 265 269 276 282 281 279 274 267 267 273 275 270 260 256 259 266 273 280 284 288 292 295 298 298 295 289 285 286 289 290 292 296 302 308 311 310 310 311 309 307 306 305 305 307 309 310 311 314 318 320 320 322 323 323 324 325 322 319 319 320 320 318 314
220 216 215 217 220 224 227 231 238 246 253 259 265 271 276 279 281 281 278 280 284 281 273 265 263 268 275 282 287 290 294 297 298 300 302 302 300 302 306 310 313 316 319 325 332 331 323 313 307 305 305 306 307 308 308 306 307 309 312 316 318 315 314 317 319 321 322 318 315 315 315 314 314 315
223 221 221 224 227 229 234 237 240 245 251 255 258 259 267 281 291 292 283 278 281 282 280 275 273 278 286 293 299 303 305 307 308 311 315 317 320 327 332 334 333 332 329 329 331 332 328 317 307 304 304 303 303 304 305 305 307 312 315 317 318 315 315 318 319 319 319 317 315 313 311 309 311 312
222 227 230 235 238 239 241 242 243 244 247 250 249 249 261 277 281 277 271 270 274 278 280 282 286 292 300 307 314 319 322 323 324 325 328 332 337 341 340 336 333 333 330 327 326 327 325 321 316 312 308 301 296 299 306 311 314 318 322 320 318 316 316 316 314 313 314 315 315 313 312 314 318 316
217 220 229 241 247 245 243 242 242 240 241 242 241 242 251 259 262 264 264 263 263 266 272 280 290 299 309 317 322 326 328 329 329 331 337 345 346 342 337 333 330 330 328 325 324 325 325 325 325 321 314 309 308 313 328 333 328 327 327 322 317 316 315 314 314 315 317 319 320 319 318 322 329 329
210 211 223 237 242 241 240 239 236 232 230 230 231 237 248 254 253 254 263 267 268 270 276 284 293 304 314 319 324 330 332 331 332 337 343 345 339 332 329 327 323 322 322 322 324 328 330 332 333 328 324 325 327 328 334 342 339 331 324 319 319 322 323 324 326 329 328 327 326 324 321 323 329 332
204 209 222 232 237 238 236 232 227 222 219 221 227 239 249 249 239 240 254 265 270 274 282 289 297 305 312 319 326 330 330 330 332 336 335 330 324 321 320 317 315 316 319 322 328 334 336 336 336 334 332 332 329 325 328 343 359 350 331 327 333 338 339 336 335 336 335 331 328 325 321 321 324 327
200 207 221 233 236 230 223 221 219 216 217 224 232 242 247 238 227 229 241 253 264 274 282 285 288 296 309 319 324 324 324 326 327 326 323 319 316 315 312 311 313 318 323 328 334 338 340 338 337 339 337 331 325 321 323 336 6 22 3 347 342 341 338 334 332 334 334 331 328 327 326 326 326 326
202 209 220 228 226 220 217 219 218 217 223 231 238 244 243 231 226 230 240 254 268 278 281 279 283 295 307 313 314 315 317 319 317 316 316 315 315 316 317 318 323 329 334 337 341 344 343 340 339 340 333 323 318 317 317 325 346 8 7 353 343 339 336 334 333 334 333 330 329 331 334 334 331 326
209 213 217 218 218 222 223 220 218 222 231 238 241 242 235 226 227 235 248 263 273 273 270 276 289 303 310 311 312 312 314 314 312 312 314 315 318 329 342 345 341 339 341 347 350 349 347 344 340 331 318 308 307 311 317 324 336 349 355 348 340 335 334 334 335 333 332 332 333 336 341 345 345 341
210 216 215 212 216 223 222 217 217 226 235 240 241 237 227 225 235 247 259 271 274 272 274 285 304 319 319 316 316 316 314 310 306 306 312 321 337 1 7 355 347 347 350 352 353 351 348 344 335 315 298 297 306 313 317 321 327 339 352 349 334 328 329 331 332 331 332 336 342 347 352 355 357 359
212 219 213 210 217 221 217 214 218 227 235 236 231 223 221 228 240 249 247 245 256 270 285 300 314 321 318 316 320 321 317 313 310 312 322 339 1 13 3 353 353 355 354 353 353 352 348 344 336 314 296 309 319 321 323 325 327 335 348 346 332 328 330 331 332 334 339 347 354 359 2 3 6 10
219 218 210 212 218 216 210 212 221 230 232 227 217 216 223 224 219 216 222 235 251 270 287 301 309 311 311 314 320 324 325 328 334 337 339 352 7 5 356 352 354 355 356 356 355 353 350 347 342 322 302 313 322 327 335 343 343 343 347 345 339 337 337 334 335 344 356 0 1 2 5 10 17 21
224 218 211 210 210 207 207 214 219 217 215 211 211 219 224 214 203 208 224 241 259 274 287 297 302 303 306 313 320 326 332 338 345 352 3 19 20 2 349 346 349 355 359 358 354 353 354 352 345 329 316 328 338 343 349 354 354 352 352 350 346 344 341 339 347 5 12 8 7 9 12 19 28 29
215 210 204 199 195 196 203 207 203 201 205 209 214 220 218 212 215 227 241 254 269 280 288 296 300 301 305 313 322 330 338 348 4 21 30 27 8 352 347 346 350 357 2 359 354 356 359 356 350 344 337 341 348 356 0 1 359 358 355 350 344 343 346 353 11 23 18 15 24 28 28 32 38 39